Retour au catalogue

SHIJIAN 6 03A

SJ-6 03A

ActifScienceSSO
NORAD 33408·PAYLOAD·🇨🇳 China

Lancé Oct 25, 2008 depuis Taiyuan Satellite Launch Center

Loading…

Prochains Passages (prochaines 24 heures)

TLE

FraisSource: Space-Track

Époque: Sep 14, 2026, 22:07 UTC

1 33408U 08053A   26257.92171404  .00003607  00000-0  18128-3 0  9993
2 33408  97.8343 294.3824 0012530  66.5997 293.6552 15.17884619976575

Suivez SHIJIAN 6 03A en temps réel avec AllMySat

Download on the App Store